www.pogodaiklimat.ru

Погода и климат >> Архив погоды >> Россия >> Архангельская область >> Малые Кармакулы


АРХИВ ПОГОДЫ в Малых Кармакулах

Время (UTC), дата Ветер
(напр.,м/с)
 
Видим.   Явления Облачность Т
(С)
Тd
(С)
f
(%)
Тe
(С)
Тes
(С)
Комфортность P
(гПа)
Po
(гПа)
Тmin
(С)
Tmax
(С)
R
(мм)
R24
(мм)
S
(см)
15 15.08 ЮЗ 6 20 км 6/0
[Ac trans Ci fib]
+11.6 +4.8 63 +9 +9 1007.1 1005.4 +13.3
18 15.08 ЮВ 7 20 км 8/0
[Ac trans Ci fib]
+11.4 +4.3 62 +8 +8 1006.8 1005.1
21 15.08 Ю 3 20 км 8/1 600 м
[Sc Ac trans Ci fib]
+9.2 +4.5 72 +7 +7 1006.8 1005.1
00 16.08 Ю 4 20 км 8/1 600 м
[Cu hum Ac trans Ci fib]
+9.3 +3.2 66 +7 +7 1007.0 1005.3
03 16.08 ЮВ 5 20 км 9/4 300 м
[Cu Sc Ac trans Ci fib]
+10.6 +6.5 76 +8 +8 1006.4 1004.7 +8.7
06 16.08 ЮВ 6 20 км 10/8 700 м
[Cu Sc Ac trans Ci fib]
+11.6 +8.1 79 +9 +9 1006.3 1004.6
09 16.08 ЮВ 6 20 км 9/8 630 м
[Cu Sc Ac trans Ci fib]
+11.9 +7.6 75 +9 +9 1005.7 1004.0
12 16.08 ЮВ 2 20 км 9/8 660 м
[Cu Sc Ac trans]
+13.4 +8.0 70 +13 +13 1005.9 1004.2
15 16.08 СВ 3 20 км 9/8 720 м
[Cu Sc Ac trans]
+11.9 +7.8 76 +10 +10 1006.6 1004.9 +13.4
18 16.08 штиль 0 20 км 8/4 600 м
[Sc Ac trans Ci fib]
+10.4 +6.5 77 +10 +10 1007.0 1005.3
21 16.08 З 1 20 км 9/4 600 м
[Sc Ac trans]
+8.5 +5.5 81 +8 +8 1007.6 1005.9
00 17.08 ЮЗ 1 20 км 10/8 750 м
[Cu Sc Ac und]
+8.1 +3.8 74 +7 +7 1009.3 1007.6
03 17.08 С 4 2000 м дымка 10/10 150 м
[St]
+7.2 +5.1 86 +4 +4 1010.6 1008.9 +7.2
06 17.08 С 3 4000 м дымка 10/10 210 м
[St]
+7.5 +5.5 87 +5 +5 1012.0 1010.3
09 17.08 С 3 20 км 10/10 270 м
[St]
+7.8 +5.3 84 +5 +5 1013.1 1011.4
12 17.08 З 3 20 км 10/10 300 м
[St]
+7.2 +5.0 86 +4 +4 1014.7 1013.0
15 17.08 Ю 2 20 км 10/10 360 м
[Sc]
+6.1 +3.5 83 +4 +4 1015.3 1013.6 +7.8
18 17.08 ЮЗ 4 20 км 10/10 270 м
[St]
+5.3 +2.3 81 +1 +1 1015.8 1014.1
21 17.08 Ю 5 4000 м дымка 10/10 210 м
[St]
+4.1 +1.5 83 -1 -1 1015.9 1014.1
00 18.08 Ю 4 20 км 9/4 600 м
[Sc Ac trans Ci fib]
+5.9 +1.9 75 +2 +2 1015.5 1013.8
03 18.08 Ю 8
{11}
20 км в посл. час ливневой дождь 9/8 570 м
[Cu Sc Ac trans Ci fib]
+9.5 +5.8 78 +5 +5 1014.9 1013.2 +4.1 0.1
06 18.08 Ю 9
{15}
20 км {ливн. осадки} 9/9 240 м
[St]
+8.7 +5.8 82 +4 +4 1015.3 1013.6
09 18.08 ЮЗ 8
{15}
20 км 9/9 210 м
[St]
+9.5 +6.7 83 +5 +5 1015.9 1014.2
12 18.08 ЮЗ 6
{11}
4000 м дымка 10/10 210 м
[St]
+10.2 +7.6 84 +7 +7 1017.4 1015.7
15 18.08 Ю 3 4000 м дымка {ливн. осадки} 9/8 270 м
[St Ac trans]
+10.2 +7.3 82 +8 +8 1017.5 1015.8 +10.3 0.0
18 18.08 Ю 4 4000 м дымка {ливн. осадки} 10/10 240 м
[Sc]
+11.0 +8.5 85 +9 +9 1018.0 1016.3
21 18.08 Ю 7
{10}
20 км 9/4 600 м
[Sc Ac trans]
+12.1 +9.2 82 +9 +9 1017.8 1016.1
00 19.08 Ю 7
{11}
20 км 8/4 600 м
[Sc Ac trans]
+11.8 +8.4 80 +9 +9 1018.1 1016.4
03 19.08 Ю 6
{11}
20 км 8/4 300 м
[Cu Sc Ac trans]
+11.4 +8.1 80 +8 +9 1019.1 1017.4 +9.8
06 19.08 Ю 8
{11}
20 км 8/3 600 м
[Sc Ac trans]
+12.3 +8.5 78 +9 +9 1020.3 1018.6
09 19.08 Ю 9
{13}
20 км 8/0
[Ac trans Ci fib]
+14.4 +9.3 71 +12 +12 1021.4 1019.7
12 19.08 Ю 10
{12}
20 км 8/0
[Ac trans Ci fib]
+15.2 +9.4 68 +13 +13 1022.1 1020.4
15 19.08 Ю 9
{12}
20 км 8/0
[Ac trans Ci fib]
+14.5 +9.9 74 +12 +12 1022.6 1020.9 +15.4
18 19.08 Ю 5
{10}
20 км 9/0
[Ac trans Ci fib]
+13.1 +8.8 75 +11 +11 1022.4 1020.7
21 19.08 Ю 8
{11}
20 км 9/1 600 м
[Sc Ac trans Ci fib]
+13.2 +9.3 77 +10 +10 1021.8 1020.1
00 20.08 ЮВ 7
{11}
20 км 8/3 300 м
[Cu hum Ac trans Ci fib]
+13.8 +8.4 70 +12 +12 1021.3 1019.4
03 20.08 ЮВ 9
{12}
20 км 8/0
[Ac trans Ci fib]
+13.4 +8.2 71 +11 +11 1020.1 1018.4 +12.8
06 20.08 ЮВ 9
{13}
20 км 4/0
[Ac trans Ci fib]
+17.4 +9.7 61 +16 +16 1019.5 1017.8
09 20.08 ЮВ 12
{17}
20 км 3/0
[Ac trans Ci fib]
+19.6 +11.2 58 +20 +20 1017.9 1016.2
12 20.08 Ю 11
{18}
20 км 8/0
[Ac trans Ci fib]
+19.6 +10.6 56 +20 +20 1016.9 1015.2
15 20.08 Ю 9
{19}
20 км 9/8 660 м
[Cu Sc Ac trans Ci fib]
+16.4 +10.2 67 +15 +15 1016.4 1014.7 +19.8
18 20.08 Ю 11
{17}
10 км слаб. ливневой дождь 10/4 300 м
[Cb cap Ac und]
+14.6 +11.7 83 +12 +12 1016.0 1014.3
21 20.08 Ю 9
{16}
10 км слаб. ливневой дождь 10/6 540 м
[Cb cap Ac und]
+13.9 +10.5 80 +11 +11 1015.1 1013.4
00 21.08 ЮВ 9
{13}
10 км слаб. ливневой дождь 10/8 480 м
[Cb cap Ac und]
+14.5 +11.8 84 +12 +12 1013.6 1011.9
03 21.08 Ю 6
{13}
20 км {ливн. осадки} 10/9 450 м
[Cu Sc Ac und]
+13.5 +10.9 84 +11 +11 1013.6 1011.9 +12.7 3
06 21.08 ЮЗ 6 4000 м дымка {ливн. осадки} 10/10 210 м
[St]
+10.9 +8.9 87 +8 +8 1014.0 1012.3 +10.9
09 21.08 ЮЗ 2 500 м туман ?/? +9.6 +7.7 88 +8 +8 1015.1 1013.4
12 21.08 СЗ 2 1000 м дымка {туман} 10/10 120 м
[St]
+9.6 +7.7 88 +8 +8 1014.9 1013.2
15 21.08 С 2 1000 м дымка 10/10 120 м
[St]
+9.2 +7.6 90 +7 +7 1014.6 1012.9 +13.5
18 21.08 С 2 500 м туман ?/? +8.8 +6.2 84 +7 +7 1014.7 1013.0
21 21.08 С 2 500 м туман ?/? +9.0 +6.4 84 +7 +7 1014.2 1012.5
00 22.08 С 2 500 м туман ?/? +8.9 +6.2 83 +7 +7 1014.0 1012.3
03 22.08 СЗ 2 500 м туман ?/? +9.4 +6.8 84 +8 +8 1013.7 1012.0 +8.8
06 22.08 С 4 20 км {туман} 10/4 200 м
[Sc Ac und]
+8.7 +5.8 82 +6 +6 1013.2 1011.5 +8.5
09 22.08 СЗ 4 20 км 8/1 200 м
[St Ac trans Ci fib]
+8.2 +5.6 84 +5 +7 1013.4 1011.7
12 22.08 С 6 20 км 6/0
[Ac trans Ci fib]
+8.2 +5.1 81 +4 +5 1013.3 1011.6

 

Местоположение метеостанции Малые Кармакулы (Архангельская область, Россия): широта 72.36 долгота 52.71 высота над уровнем моря 14 м.

В архиве по умолчанию представлена погода в Малых Кармакулах за последнюю неделю. Архивные данные за месяц целиком и за предыдущие месяцы, начиная с января 2011 года, Вы можете получить, выбрав интересующий диапазон дат из раскрывающегося списка и нажав кнопку "Ввод!".


*Определитесь, кто Вы:
робот инопланетянин человек

Внимание! Время в таблицах - всемирное. Для получения местного времени необходимо прибавить поправку, которая равна 3 ч.

Смотрите также архив погоды в соседних городах и на ближайших метеорологических станциях:

Погода в Имени Федорова (Ненецкий АО, Россия) (310 км)
Погода на Колгуевом Острове (Ненецкий АО, Россия) (341 км)
Погода в Ходоварихе (Ненецкий АО, Россия) (383 км)
Погода на Мысе Белый Нос (Ненецкий АО, Россия) (409 км)
Погода в Бугрино (Ненецкий АО, Россия) (415 км)
Погода в Амдерме (Ненецкий АО, Россия) (433 км)
Погода в Сенгейском Шаре (Ненецкий АО, Россия) (435 км)
Погода на Мысе Константиновском (Ненецкий АО, Россия) (436 км)
Погода в Варандее (Ненецкий АО, Россия) (440 км)
Погода в Нарьян-Маре (Ненецкий АО, Россия) (526 км)

Пояснения к столбцам:

Ветер - указаны скорость ветра в м/с - средняя за 10 мин, порывы в срок и между сроками (в фигурных скобках) и направление, откуда дует ветер: С - северный, СВ - северо-восточный, В - восточный, ЮВ - юго-восточный, Ю - южный, ЮЗ - юго-западный, З - западный, СЗ - северо-западный.
Видимость - горизонтальная дальность видимости в метрах или километрах. При видимости от 1 до 10 км при отсутствии осадков обычно наблюдается дымка, при ухудшении видимости до 1 км и менее - туман. В сухую погоду видимость может ухудшаться дымом, пылью или мглою.
Явления - указаны атмосферные явления, наблюдавшиеся в срок или в последний час перед сроком; фигурными скобками обозначены явления, наблюдавшиеся между сроками (за 1-3 часа до срока); квадратными скобками обозначены град или гололедные отложения с указанием их диаметра в мм.
Облачность - указаны через наклонную черту общая и нижняя облачность в баллах и высота нижней границы облаков в метрах; квадратными скобками обозначены формы облаков: Ci - перистые, Cs - перисто-слоистые, Cc - перисто-кучевые, Ac - высококучевые, As - высокослоистые, Sc - слоисто-кучевые, Ns - слоисто-дождевые, Cu - кучевые, Cb - кучево-дождевые. Подробнее классификацию облаков см. в Атласе облаков (PDF).
T - Температура воздуха - температура, измеренная на высоте 2 м над землей.
Td - Температура точки росы - температура, при понижении до которой содержащийся в воздухе водяной пар достигнет насыщения.
f - Относительная влажность воздуха - влажноcть воздуха, измеренная на высоте 2 м над землей.
Te - Эффективная температура - температура, которую ощущает одетый по сезону человек в тени. Характеристика душности погоды. При расчете учитывается влияние влажности воздуха и скорости ветра на теплоощущения человека.
Tes - Эффективная температура на солнце - температура, которую ощущает человек, с поправкой на солнечный нагрев. Характеристика знойности погоды. Зависит от высоты солнца над горизонтом, облачности и скорости ветра. Ночью, в пасмурную погоду, а также при ветре 12 м/с и более поправка равна нулю.
P - Атмосферное давление - приведенное к уровню моря атмосферное давление.
Po - Атмосферное давление - измеренное на уровне метеостанции атмосферное давление.
Tmin - Минимальная температура - минимум температуры воздуха на высоте 2 м над землей.
Tmax - Максимальная температура - максимум температуры воздуха на высоте 2 м над землей.
R - Количество осадков - Количество выпавших осадков за период времени, мм. При наведении курсора мыши на число - период времени, за который выпало указанное количество осадков.
R24 - Количество осадков - Количество выпавших осадков за 24 часа, мм.
S - Снежный покров - Высота снежного покрова, см. При наведении курсора мыши на число - состояние снежного покрова и степень покрытия местности в баллах.